CHURANOV Weather Reports


Display with metric or nautical units.
time (UTC)temp
F
wind
direction
speed
MPH
gust
MPH
rain 1hr
in
rain 24hr
in
rain mn
in
humidity
%
barometer
mb
20260506001712 48 240 14.0 0.0 0.00 0.00 0.00 81
20260505231712 50 240 9.0 0.0 0.00 0.00 0.00 71
20260505221711 50 280 5.0 0.0 0.00 0.00 0.00 87
20260505211728 52 240 5.0 0.0 0.00 0.00 0.00 71
20260505201728 54 250 9.0 0.0 0.00 0.00 0.00 66
20260505191729 55 240 12.0 0.0 0.00 0.00 0.00 58
20260505181712 57 140 2.0 0.0 0.00 0.00 0.00 62
20260505171713 61 110 7.0 0.0 0.00 0.00 0.00 51
20260505161812 64 30 5.0 0.0 0.00 0.00 0.00 42
20260505151711 66 60 5.0 0.0 0.00 0.00 0.00 42
20260505121713 64 0 5.0 0.0 0.00 0.00 0.00 45
20260505111712 63 350 5.0 0.0 0.00 0.00 0.00 45
20260505101712 64 0 5.0 0.0 0.00 0.00 0.00 36
20260505091712 63 0 5.0 0.0 0.00 0.00 0.00 45
20260505081713 63 10 5.0 0.0 0.00 0.00 0.00 45
20260505071711 61 320 5.0 0.0 0.00 0.00 0.00 48
20260505061712 61 240 2.0 0.0 0.00 0.00 0.00 44
20260505051712 54 230 2.0 0.0 0.00 0.00 0.00 62
20260505041712 48 210 7.0 0.0 0.00 0.00 0.00 70
20260505031712 50 220 5.0 0.0 0.00 0.00 0.00 66
20260505021711 50 220 7.0 0.0 0.00 0.00 0.00 66
20260505011714 50 140 5.0 0.0 0.00 0.00 0.00 76